Weather Roundup
Issued by NWS

Home | Current Version | Previous Version | Text Only | Print | Product List | Glossary On
Versions: 1 2 3 4 5 6 7 8 9 10 11 12 13 14 15 16 17 18 19 20 21 22 23 24 25 26 27 28 29 30 31 32 33 34 35 36 37 38 39 40 41 42 43 44 45 46 47 48 49 50
000
NZUS93 KARX 210710
HRRWXR

CURRENT HOURLY OBSERVATIONS ACROSS
MUCH OF THE UPPER MISSISSIPPI VALLEY
NATIONAL WEATHER SERVICE LA CROSSE WI
200 AM CDT THU AUG 21 2014


...SOUTHEAST MINNESOTA...


CITY           SKY/WX    TMP DP  RH WIND       PRES   REMARKS
ROCHESTER      MOCLDY    69  66  90 S7        29.89F
ROCHESTER/MAYO FAIR      70  67  91 SE7       29.88F
WINONA         CLOUDY    70  66  88 SE6       29.88F
AUSTIN         MOCLDY    70  66  88 SE5       29.88F
ALBERT LEA     CLOUDY    70  66  88 SE9       29.86F
DODGE CENTER   MOCLDY    70  66  88 SE7       29.88F
PRESTON        MOCLDY    68  69 100 S7        29.90F
OWATONNA       CLOUDY    73  64  73 SE13      29.85F
FARIBAULT      MOCLDY    75  64  69 SE3       29.85S
$$

...ELSEWHERE IN MINNESOTA...


CITY           SKY/WX    TMP DP  RH WIND       PRES   REMARKS
MINNEAPOLIS    MOCLDY    71  65  81 E13       29.84F
INTNL FALLS    CLEAR     58  57  97 CALM      29.91S
DULUTH         CLOUDY    62  60  93 E7        29.92F FOG
RED WING       MOCLDY    72  64  78 E7        29.85F
REDWOOD FALLS  CLOUDY    72  68  87 E13       29.76S
MANKATO        CLOUDY    72  63  73 SE14      29.82S
WORTHINGTON    MOCLDY    73  14  10 S15G21    29.75F
FAIRMONT       CLOUDY    70  64  83 MISG      29.80F
$$

...SOUTHWEST WISCONSIN...


CITY           SKY/WX    TMP DP  RH WIND       PRES   REMARKS
LA CROSSE      MOCLDY    72  66  81 SE8       29.89F
PRAIRIE DU CHI CLOUDY    70  66  88 E7        29.90F
BOSCOBEL       CLOUDY    70  66  87 CALM      29.92S
LONE ROCK      MOCLDY    73  67  81 SE3       29.92F
PLATTEVILLE    MOCLDY    69  67  93 E6        29.94F
FORT MC COY    MOCLDY    69  64  84 E3        29.92F
CAMP DOUGLAS   MOCLDY    64  64 100 SE5       29.93F
VIROQUA        PTSUNNY   68  68 100 E5        29.93S
WIS DELLS      PTCLDY    66  63  90 NE3       29.94S
$$

...ELSEWHERE IN WISCONSIN...


CITY           SKY/WX    TMP DP  RH WIND       PRES   REMARKS
MILWAUKEE      PTCLDY    67  62  84 SE3       29.96F
MADISON        CLOUDY    68  65  90 NE5       29.94S
GREEN BAY      PTCLDY    62  61  96 S3        29.97S
EAU CLAIRE     MOCLDY    67  63  87 E7        29.89F
BLACK RVR FLS  FAIR      66  66  98 CALM      29.92F
MEDFORD        MOCLDY    61  60  97 SE3       29.96S
WAUSAU         MOCLDY    60  59  96 E3        29.95S
WIS RAPIDS     MOCLDY    65  62  90 SE5       29.96F
MARSHFIELD     MOCLDY    63  61  93 E5        29.96R
RICE LAKE      PTCLDY    63  60  91 E6        29.92F
$$

...NORTHEAST IOWA...


CITY           SKY/WX    TMP DP  RH WIND       PRES   REMARKS
WATERLOO       MOCLDY    70  68  93 SE8       29.87F
DUBUQUE        CLOUDY    70  66  87 SE7       29.93F
DECORAH        CLOUDY    70  66  88 SE6       29.90F
MASON CITY     CLOUDY    69  68  96 SE8       29.88F
CHARLES CITY   CLOUDY    70  68  94 SE10      29.89F
OELWEIN        CLOUDY    70  70 100 SE12      29.90F
$$

...ELSEWHERE IN IOWA...


CITY           SKY/WX    TMP DP  RH WIND       PRES   REMARKS
DES MOINES     PTCLDY    77  72  84 S7        29.84S
IOWA CITY      MOCLDY    72  71  97 SE3       29.90F
FORT DODGE     CLEAR     73  72  94 SE7       29.83F
MARSHALLTOWN   PTCLDY    71  70  96 E9        29.86F
CEDAR RAPIDS   MOCLDY    69  69 100 E6        29.89F FOG
$$

...NORTHERN ILLINOIS...


CITY           SKY/WX    TMP DP  RH WIND       PRES   REMARKS
CHICAGO-OHARE  CLOUDY    73  64  73 SW5       29.95S
DUPAGE         CLOUDY    71  67  87 CALM      29.95F
CHICAGO-MIDWAY LGT RAIN  74  68  81 S6        29.95F
MOLINE         PTCLDY    69  67  93 E7        29.91F
ROCKFORD       CLOUDY    70  66  87 CALM      29.96S
STERLING       CLOUDY    70  66  88 SE5       29.94F
PEORIA         MOCLDY    73  69  87 S7        29.94F
$$

NOTE: "FAIR" INDICATES FEW OR NO CLOUDS BELOW 12,000 FEET WITH NO
SIGNIFICANT WEATHER AND/OR OBSTRUCTIONS TO VISIBILITY. WIND
SPEEDS ARE IN MILES-PER-HOUR.



USA.gov is the U.S. government's official web portal to all federal, state and local government web resources and services.